EW8792 Weather Reports


Display with metric or nautical units.
time (UTC)temp
F
wind
direction
speed
MPH
gust
MPH
rain 1hr
in
rain 24hr
in
rain mn
in
humidity
%
barometer
mb
20191115135005 61 90 4.0 5.0 0.00 0.26 0.01 71 1022.2
20191115134505 61 89 4.0 5.0 0.00 0.26 0.01 70 1022.3
20191115134004 61 83 4.0 4.0 0.00 0.26 0.01 70 1022.4
20191115133504 62 80 3.0 4.0 0.00 0.26 0.01 69 1022.1
20191115133007 62 28 3.0 4.0 0.00 0.26 0.01 68 1022.2
20191115132503 62 65 4.0 5.0 0.00 0.26 0.01 67 1022.1
20191115132004 63 109 4.0 5.0 0.00 0.26 0.01 64 1022.4
20191115131506 64 105 3.0 4.0 0.00 0.26 0.01 64 1022.1
20191115131004 64 92 3.0 4.0 0.00 0.26 0.01 65 1022.2
20191115130504 64 95 3.0 4.0 0.00 0.26 0.01 64 1022.2
20191115130006 64 97 4.0 6.0 0.00 0.26 0.01 64 1022.5
20191115125504 64 100 4.0 6.0 0.00 0.26 0.01 64 1022.5
20191115125004 64 108 3.0 6.0 0.00 0.26 0.01 63 1022.3
20191115124505 64 107 3.0 4.0 0.00 0.26 0.01 63 1022.6
20191115124005 64 113 2.0 3.0 0.00 0.26 0.01 63 1022.5
20191115123504 64 103 2.0 4.0 0.00 0.26 0.01 65 1022.2
20191115123006 63 106 3.0 4.0 0.00 0.26 0.01 66 1022.4
20191115122503 63 112 3.0 4.0 0.00 0.26 0.01 67 1022.2
20191115122005 63 79 3.0 4.0 0.00 0.26 0.01 68 1022.3
20191115121505 62 67 3.0 4.0 0.00 0.26 0.01 68 1022.0
20191115121005 63 36 3.0 4.0 0.00 0.26 0.01 67 1022.3
20191115120503 63 107 3.0 5.0 0.00 0.26 0.01 66 1022.3
20191115120006 64 72 3.0 5.0 0.00 0.26 0.01 64 1022.4
20191115115504 65 64 3.0 5.0 0.00 0.26 0.01 64 1022.4
20191115115005 64 78 3.0 4.0 0.00 0.26 0.01 62 1022.3
20191115114505 65 20 4.0 8.0 0.00 0.26 0.01 62 1022.4
20191115114004 64 331 4.0 8.0 0.00 0.26 0.01 63 1022.2
20191115113503 64 4 3.0 7.0 0.00 0.26 0.01 65 1022.1
20191115113006 64 359 2.0 2.0 0.00 0.26 0.01 63 1022.3
20191115112503 64 342 2.0 4.0 0.00 0.26 0.01 62 1022.1
20191115112006 65 330 4.0 5.0 0.00 0.26 0.01 60 1022.1
20191115111506 67 316 4.0 5.0 0.00 0.26 0.01 56 1022.0
20191115111005 68 308 3.0 4.0 0.00 0.26 0.01 56 1022.0
20191115110504 67 338 2.0 4.0 0.00 0.26 0.01 58 1022.0
20191115110007 67 307 3.0 4.0 0.00 0.26 0.01 58 1022.3
20191115105504 67 295 2.0 4.0 0.00 0.26 0.01 60 1022.2
20191115105004 65 325 2.0 3.0 0.00 0.26 0.01 65 1022.1
20191115104505 63 332 2.0 3.0 0.00 0.26 0.01 66 1022.1
20191115104005 62 325 2.0 4.0 0.00 0.26 0.01 66 1021.9
20191115103503 62 321 3.0 4.0 0.00 0.26 0.01 66 1022.0
20191115103008 63 316 2.0 4.0 0.00 0.26 0.01 66 1022.0
20191115102503 63 310 2.0 3.0 0.00 0.26 0.01 66 1022.1
20191115102005 63 329 2.0 4.0 0.00 0.26 0.01 65 1022.2
20191115101505 63 313 3.0 4.0 0.00 0.26 0.01 63 1022.0
20191115101005 64 295 3.0 4.0 0.00 0.26 0.01 63 1022.3
20191115100503 64 316 2.0 4.0 0.00 0.26 0.01 67 1022.2
20191115100006 63 325 2.0 3.0 0.00 0.26 0.01 65 1022.2
20191115095503 63 338 2.0 3.0 0.00 0.26 0.01 65 1022.1
20191115095005 64 324 2.0 3.0 0.00 0.26 0.01 66 1022.1
20191115094506 64 297 2.0 4.0 0.00 0.26 0.01 65 1022.2
20191115094004 65 320 2.0 4.0 0.00 0.26 0.01 64 1022.2
20191115093503 65 338 2.0 2.0 0.00 0.26 0.01 64 1022.1
20191115093007 65 330 2.0 4.0 0.00 0.26 0.01 65 1022.2
20191115092504 64 322 2.0 4.0 0.00 0.26 0.01 64 1022.2
20191115092005 64 316 3.0 6.0 0.00 0.26 0.01 63 1022.3
20191115091511 65 304 3.0 6.0 0.00 0.26 0.01 63 1022.2
20191115091005 64 327 2.0 4.0 0.00 0.26 0.01 68 1022.4
20191115090505 63 336 2.0 4.0 0.00 0.26 0.01 67 1022.4
20191115090006 63 352 2.0 4.0 0.00 0.26 0.01 68 1022.4
20191115085503 63 359 2.0 4.0 0.00 0.26 0.01 69 1022.3
20191115085004 63 353 2.0 4.0 0.00 0.26 0.01 69 1022.2
20191115084505 62 343 2.0 4.0 0.00 0.26 0.01 72 1022.1
20191115084005 61 328 2.0 3.0 0.00 0.26 0.01 75 1022.0
20191115083504 60 6 2.0 4.0 0.00 0.26 0.01 75 1022.2
20191115083007 59 49 2.0 4.0 0.00 0.26 0.01 74 1021.9
20191115082504 60 12 2.0 3.0 0.00 0.26 0.01 74 1022.0
20191115082005 60 314 3.0 4.0 0.00 0.26 0.01 74 1022.0
20191115081505 60 333 2.0 4.0 0.00 0.26 0.01 76 1021.8
20191115081005 60 23 2.0 3.0 0.00 0.26 0.01 79 1021.7
20191115080505 60 352 2.0 3.0 0.00 0.26 0.01 79 1021.6
20191115080007 59 327 2.0 3.0 0.00 0.26 0.01 78 1021.5
20191115075504 59 305 2.0 3.0 0.00 0.26 0.01 79 1021.5
20191115075005 59 309 3.0 4.0 0.00 0.26 0.01 80 1021.6
20191115074505 59 326 3.0 4.0 0.00 0.26 0.01 81 1021.5
20191115074005 59 320 2.0 4.0 0.00 0.26 0.01 82 1021.4
20191115073504 59 321 2.0 4.0 0.00 0.26 0.01 83 1021.5
20191115073008 58 310 3.0 4.0 0.00 0.26 0.01 83 1021.4
20191115072503 58 303 2.0 4.0 0.00 0.26 0.01 84 1021.5
20191115072005 58 312 2.0 2.0 0.00 0.26 0.01 86 1021.3
20191115071505 58 309 2.0 3.0 0.00 0.26 0.01 88 1021.2
20191115071005 58 346 2.0 3.0 0.00 0.26 0.01 90 1021.0
20191115070503 58 4 1.0 3.0 0.00 0.26 0.01 91 1021.0
20191115070006 56 314 1.0 3.0 0.00 0.26 0.01 93 1021.0
20191115065504 56 323 1.0 3.0 0.00 0.26 0.01 93 1020.8
20191115065004 56 343 1.0 2.0 0.00 0.26 0.01 93 1020.8
20191115064506 56 338 2.0 2.0 0.00 0.26 0.01 94 1020.8
20191115064005 56 342 2.0 2.0 0.00 0.26 0.01 94 1020.8
20191115063504 56 325 1.0 2.0 0.00 0.26 0.01 94 1020.7
20191115063006 56 330 1.0 4.0 0.00 0.26 0.01 94 1020.7
20191115062503 56 345 2.0 4.0 0.00 0.26 0.01 95 1020.6
20191115062005 55 331 2.0 2.0 0.00 0.26 0.01 95 1020.5
20191115061505 55 333 2.0 2.0 0.00 0.26 0.01 95 1020.3
20191115061005 55 340 1.0 2.0 0.00 0.26 0.01 95 1020.3
20191115060503 55 26 1.0 2.0 0.00 0.26 0.01 95 1020.2
20191115060007 55 32 1.0 2.0 0.00 0.26 0.01 95 1020.4
20191115055503 55 355 1.0 2.0 0.00 0.26 0.01 95 1020.2
20191115055005 55 276 1.0 3.0 0.00 0.26 0.01 95 1020.1
20191115054505 55 250 1.0 3.0 0.00 0.26 0.01 95 1020.0
20191115054005 55 346 1.0 2.0 0.00 0.26 0.01 95 1020.1
20191115053503 55 312 1.0 2.0 0.00 0.26 0.01 96 1019.9
20191115053007 55 319 1.0 2.0 0.00 0.26 0.01 96 1019.8
20191115052504 55 341 1.0 2.0 0.00 0.26 0.01 96 1019.8
20191115052005 55 350 1.0 2.0 0.00 0.26 0.01 96 1019.7
20191115051505 55 348 1.0 2.0 0.00 0.26 0.01 96 1019.4
20191115051004 55 339 1.0 2.0 0.00 0.26 0.01 96 1019.3
20191115050503 55 347 1.0 2.0 0.00 0.26 0.01 96 1019.2
20191115050007 55 348 1.0 2.0 0.00 0.26 0.01 96 1019.5
20191115045504 55 314 1.0 2.0 0.00 0.26 0.01 96 1019.4
20191115045005 55 301 1.0 2.0 0.00 0.26 0.01 96 1019.4
20191115044505 55 295 1.0 2.0 0.00 0.26 0.01 96 1019.2
20191115044005 55 358 1.0 2.0 0.00 0.26 0.01 96 1019.2
20191115043504 55 6 1.0 2.0 0.00 0.26 0.01 96 1019.1
20191115043008 55 348 1.0 2.0 0.00 0.26 0.01 96 1019.2
20191115042503 55 46 1.0 4.0 0.00 0.26 0.01 96 1019.0
20191115042007 55 61 2.0 4.0 0.00 0.26 0.01 96 1018.9
20191115041505 55 341 2.0 3.0 0.00 0.26 0.01 97 1019.1
20191115041005 55 337 1.0 3.0 0.00 0.26 0.01 97 1018.9
20191115040504 55 262 1.0 2.0 0.00 0.26 0.01 97 1018.7
20191115040008 55 293 1.0 2.0 0.00 0.26 0.01 97 1018.7
20191115035503 55 323 1.0 4.0 0.00 0.26 0.01 97 1018.9
20191115035005 55 274 2.0 4.0 0.00 0.26 0.01 97 1018.7
20191115034505 55 250 2.0 4.0 0.00 0.26 0.01 97 1018.5
20191115034006 55 269 2.0 4.0 0.00 0.26 0.01 97 1018.6
20191115033504 55 354 1.0 2.0 0.00 0.26 0.01 97 1018.6
20191115033007 55 19 1.0 2.0 0.00 0.26 0.01 97 1018.4
20191115032503 55 355 1.0 2.0 0.00 0.26 0.01 97 1018.4
20191115032005 55 339 2.0 4.0 0.00 0.26 0.01 97 1018.4
20191115031506 55 313 2.0 4.0 0.00 0.26 0.01 97 1018.3
20191115031007 55 270 2.0 4.0 0.00 0.26 0.01 97 1018.3
20191115030504 55 64 1.0 4.0 0.00 0.26 0.01 97 1018.3
20191115030008 55 4 1.0 4.0 0.00 0.26 0.01 97 1018.3
20191115025504 55 354 1.0 4.0 0.00 0.26 0.01 97 1018.1
20191115025006 55 305 1.0 2.0 0.00 0.26 0.01 97 1018.2
20191115024506 55 327 1.0 2.0 0.00 0.26 0.01 97 1018.0
20191115024005 55 309 0.0 2.0 0.00 0.26 0.01 97 1018.1
20191115023503 55 305 1.0 2.0 0.00 0.26 0.01 97 1018.0
20191115023007 55 141 0.0 1.0 0.00 0.26 0.01 97 1017.9
20191115022503 55 194 1.0 2.0 0.00 0.26 0.01 97 1017.9
20191115022005 55 215 1.0 2.0 0.00 0.26 0.01 97 1017.8
20191115021506 55 31 1.0 2.0 0.00 0.26 0.01 97 1017.8
20191115021005 55 52 1.0 2.0 0.00 0.26 0.01 97 1017.8
20191115020504 55 352 0.0 1.0 0.00 0.26 0.01 97 1017.7
20191115020007 55 315 1.0 2.0 0.00 0.26 0.01 97 1017.5
20191115015503 55 299 1.0 2.0 0.00 0.26 0.01 97 1017.5
20191115015004 55 353 1.0 2.0 0.00 0.26 0.01 97 1017.4
20191115014505 55 328 1.0 2.0 0.00 0.26 0.01 97 1017.4
20191115014005 55 331 1.0 2.0 0.00 0.26 0.01 98 1017.5
20191115013504 55 326 1.0 2.0 0.00 0.26 0.01 98 1017.3
20191115013008 55 318 1.0 2.0 0.00 0.26 0.01 98 1017.2
20191115012503 55 329 1.0 4.0 0.00 0.26 0.01 98 1017.1
20191115012005 55 317 2.0 4.0 0.00 0.26 0.01 98 1017.2
20191115011505 56 353 2.0 3.0 0.00 0.26 0.01 98 1017.2
20191115011006 56 16 1.0 3.0 0.00 0.26 0.01 98 1017.1
20191115010505 56 20 1.0 3.0 0.00 0.26 0.01 98 1017.2
20191115010007 56 322 1.0 2.0 0.00 0.26 0.01 98 1017.0
20191115005504 56 317 1.0 2.0 0.00 0.26 0.01 98 1017.0
20191115005005 56 323 1.0 4.0 0.00 0.26 0.01 98 1017.0
20191115004505 56 299 1.0 4.0 0.00 0.26 0.01 98 1016.7
20191115004008 56 238 1.0 4.0 0.00 0.26 0.01 98 1016.9
20191115003504 56 186 0.0 1.0 0.00 0.26 0.01 98 1016.5
20191115003007 56 290 1.0 2.0 0.00 0.26 0.01 98 1016.7
20191115002503 56 322 1.0 2.0 0.00 0.26 0.01 98 1016.6
20191115002008 56 340 1.0 2.0 0.00 0.26 0.01 98 1016.8
20191115001506 56 319 1.0 2.0 0.00 0.26 0.01 98 1016.6
20191115001006 56 308 1.0 2.0 0.00 0.26 0.01 98 1016.7
20191115000504 56 357 0.0 1.0 0.00 0.26 0.01 98 1016.5
20191115000007 56 338 1.0 3.0 0.00 0.26 0.01 98 1016.6
20191114235504 56 289 2.0 3.0 0.00 0.26 0.01 98 1016.5
20191114235005 56 309 1.0 2.0 0.00 0.26 0.01 98 1016.3
20191114234505 57 311 2.0 5.0 0.00 0.26 0.01 98 1016.4
20191114234006 57 311 2.0 5.0 0.00 0.26 0.01 98 1016.2
20191114233503 57 1 1.0 2.0 0.00 0.26 0.01 98 1016.3
20191114233045 57 318 1.0 2.0 0.00 0.26 0.01 98 1016.2
20191114232503 57 304 1.0 2.0 0.00 0.26 0.01 98 1016.1
20191114232027 57 293 2.0 3.0 0.00 0.26 0.01 98 1016.2
20191114231506 57 301 2.0 3.0 0.00 0.26 0.01 98 1016.0
20191114231006 57 287 2.0 3.0 0.00 0.26 0.01 97 1016.2
20191114230503 57 295 2.0 3.0 0.01 0.26 0.01 97 1016.1
20191114230007 57 284 1.0 2.0 0.01 0.26 0.01 97 1016.2
20191114225504 57 258 0.0 1.0 0.01 0.26 0.01 97 1016.0
20191114225004 57 331 0.0 1.0 0.01 0.26 0.01 97 1016.1
20191114224505 57 292 0.0 2.0 0.01 0.26 0.01 97 1016.0
20191114224005 57 269 0.0 2.0 0.01 0.26 0.01 97 1016.0
20191114223505 57 292 0.0 1.0 0.01 0.26 0.01 97 1016.0
20191114223007 57 0 0.0 0.0 0.01 0.26 0.01 96 1015.9
20191114222504 57 0 0.0 0.0 0.02 0.26 0.01 96 1015.7
20191114222005 57 0 0.0 0.0 0.02 0.26 0.01 96 1015.9
20191114221506 57 0 0.0 0.0 0.02 0.26 0.01 96 1015.8
20191114221005 57 0 0.0 0.0 0.04 0.26 0.01 96 1015.9
20191114220503 57 0 0.0 0.0 0.02 0.25 0.00 96 1015.8
20191114220024 57 0 0.0 0.0 0.02 0.25 0.00 96 1015.9
20191114215504 57 0 0.0 0.0 0.04 0.25 0.25 97 1015.7
20191114215005 57 0 0.0 0.0 0.04 0.25 0.25 97 1015.8
20191114214505 57 0 0.0 0.0 0.04 0.25 0.25 97 1015.8
20191114214006 57 0 0.0 0.0 0.04 0.25 0.25 97 1015.8
20191114213503 57 0 0.0 0.0 0.04 0.25 0.25 97 1015.6
20191114213119 57 1 0.0 1.0 0.05 0.25 0.25 97 1015.6
20191114212504 57 11 0.0 1.0 0.04 0.24 0.24 97 1015.7
20191114212005 57 348 1.0 2.0 0.04 0.24 0.24 97 1015.6
20191114211505 57 326 1.0 2.0 0.04 0.24 0.24 97 1015.7
20191114211005 57 345 0.0 1.0 0.04 0.22 0.22 97 1015.6
20191114210503 57 10 0.0 1.0 0.04 0.22 0.22 97 1015.8
20191114210009 57 25 0.0 2.0 0.05 0.22 0.22 97 1015.5
20191114205503 57 25 1.0 2.0 0.04 0.21 0.21 97 1015.7
20191114205005 57 36 0.0 2.0 0.05 0.21 0.21 97 1015.7
20191114204506 57 49 0.0 2.0 0.05 0.21 0.21 97 1015.7
20191114204005 57 86 1.0 2.0 0.05 0.21 0.21 96 1015.7
20191114203503 57 91 2.0 2.0 0.06 0.21 0.21 96 1015.5
20191114203007 57 96 2.0 4.0 0.06 0.20 0.20 96 1015.6
20191114202503 57 106 3.0 4.0 0.07 0.20 0.20 95 1015.5
20191114202005 57 110 4.0 6.0 0.08 0.20 0.20 95 1015.4
20191114201506 57 122 5.0 6.0 0.09 0.20 0.20 95 1015.5
20191114201058 57 123 5.0 6.0 0.09 0.19 0.19 95 1015.4
20191114200505 57 124 6.0 8.0 0.09 0.19 0.19 95 1015.6
20191114200007 57 126 7.0 10.0 0.09 0.18 0.18 95 1015.6
20191114195504 57 113 7.0 10.0 0.09 0.18 0.18 95 1015.6
20191114195005 57 102 7.0 9.0 0.09 0.17 0.17 95 1015.4
20191114194505 57 105 7.0 9.0 0.09 0.17 0.17 95 1015.4
20191114194005 57 103 8.0 12.0 0.09 0.17 0.17 95 1015.4
20191114193504 57 106 8.0 12.0 0.08 0.15 0.15 95 1015.5
20191114193007 57 122 6.0 8.0 0.07 0.14 0.14 95 1015.4
20191114192503 57 124 5.0 6.0 0.07 0.13 0.13 94 1015.3
20191114192005 57 112 5.0 8.0 0.06 0.12 0.12 94 1015.4
20191114191506 57 103 6.0 8.0 0.06 0.11 0.11 94 1015.4
20191114191005 57 112 6.0 8.0 0.05 0.09 0.09 94 1015.2
20191114190504 57 106 6.0 8.0 0.05 0.09 0.09 94 1015.3
20191114190006 57 109 6.0 8.0 0.05 0.08 0.08 94 1015.4
20191114185503 57 128 5.0 7.0 0.05 0.08 0.08 95 1015.3
20191114185005 57 93 5.0 5.0 0.05 0.07 0.07 94 1015.4
20191114184505 57 80 5.0 8.0 0.05 0.07 0.07 93 1015.2
20191114184005 57 92 6.0 9.0 0.05 0.07 0.07 93 1015.3
20191114183503 57 100 7.0 9.0 0.05 0.07 0.07 93 1015.3
20191114183008 57 97 7.0 9.0 0.06 0.07 0.07 93 1015.2
20191114182504 57 93 8.0 11.0 0.05 0.06 0.06 93 1015.2
20191114182004 57 103 8.0 11.0 0.05 0.06 0.06 93 1015.1
20191114181505 57 112 8.0 11.0 0.04 0.05 0.05 93 1015.1
20191114181005 57 106 8.0 11.0 0.04 0.05 0.05 93 1015.0
20191114180507 57 116 8.0 10.0 0.04 0.05 0.05 92 1015.1
20191114180008 57 117 8.0 10.0 0.02 0.04 0.04 92 1015.0
20191114175504 57 93 7.0 8.0 0.02 0.04 0.04 92 1015.3
20191114175005 57 121 6.0 8.0 0.01 0.02 0.02 92 1015.1
20191114174505 57 129 6.0 8.0 0.02 0.02 0.02 92 1014.9
20191114174004 57 106 7.0 8.0 0.02 0.02 0.02 92 1015.0
20191114173505 57 97 7.0 9.0 0.02 0.02 0.02 92 1014.9
20191114173007 57 97 8.0 10.0 0.01 0.01 0.01 92 1015.0
20191114172504 57 97 8.0 11.0 0.01 0.01 0.01 92 1014.9
20191114172005 57 99 8.0 11.0 0.01 0.01 0.01 91 1015.0
20191114171506 57 107 8.0 10.0 0.01 0.01 0.01 91 1014.8
20191114171005 58 111 8.0 10.0 0.01 0.01 0.01 91 1014.8
20191114170504 58 99 8.0 10.0 0.01 0.01 0.01 91 1014.8
20191114170006 58 114 9.0 12.0 0.01 0.01 0.01 91 1014.8
20191114165504 58 123 9.0 12.0 0.01 0.01 0.01 90 1014.8
20191114165004 58 108 9.0 11.0 0.01 0.01 0.01 89 1014.9
20191114164505 58 93 9.0 13.0 0.00 0.00 0.00 89 1015.0
20191114164005 58 93 9.0 13.0 0.00 0.00 0.00 88 1014.8
20191114163505 58 102 9.0 11.0 0.00 0.00 0.00 87 1014.8
20191114163006 58 105 9.0 11.0 0.00 0.00 0.00 87 1014.8
20191114162503 59 114 9.0 11.0 0.00 0.00 0.00 86 1014.8
20191114162009 59 124 10.0 11.0 0.00 0.00 0.00 86 1014.8
20191114161507 59 109 9.0 11.0 0.00 0.00 0.00 84 1014.8
20191114161004 59 91 9.0 11.0 0.00 0.00 0.00 84 1014.8
20191114160504 59 99 9.0 11.0 0.00 0.00 0.00 84 1014.7
20191114160006 59 103 8.0 11.0 0.00 0.00 0.00 84 1014.7
20191114155504 59 84 8.0 10.0 0.00 0.00 0.00 84 1014.6
20191114155005 59 60 8.0 10.0 0.00 0.00 0.00 84 1014.5
20191114154505 59 85 8.0 11.0 0.00 0.00 0.00 84 1014.4
20191114154005 59 95 9.0 14.0 0.00 0.00 0.00 84 1014.6
20191114153503 59 98 10.0 14.0 0.00 0.00 0.00 84 1014.6
20191114153007 59 91 10.0 13.0 0.00 0.00 0.00 83 1014.4
20191114152504 60 97 10.0 13.0 0.00 0.00 0.00 83 1014.6
20191114152007 60 110 9.0 13.0 0.00 0.00 0.00 83 1014.6
20191114151505 60 108 8.0 13.0 0.00 0.00 0.00 84 1014.7
20191114151005 60 101 8.0 12.0 0.00 0.00 0.00 84 1014.4
20191114150504 60 94 9.0 12.0 0.00 0.00 0.00 84 1014.6
20191114150005 60 80 8.0 11.0 0.00 0.00 0.00 84 1014.6
20191114145504 60 86 8.0 11.0 0.00 0.00 0.00 84 1014.6
20191114145006 60 105 8.0 12.0 0.00 0.00 0.00 83 1014.6
20191114144506 60 110 9.0 12.0 0.00 0.00 0.00 83 1014.3
20191114144005 60 94 9.0 11.0 0.00 0.00 0.00 82 1014.5
20191114143506 60 92 9.0 12.0 0.00 0.00 0.00 81 1014.6
20191114143005 60 103 10.0 12.0 0.00 0.00 0.00 81 1014.5
20191114142504 60 113 9.0 12.0 0.00 0.00 0.00 80 1014.6
20191114142005 61 91 8.0 11.0 0.00 0.00 0.00 80 1014.5
20191114141505 61 88 9.0 11.0 0.00 0.00 0.00 79 1014.7
20191114141006 61 102 7.0 10.0 0.00 0.00 0.00 79 1014.4
20191114140504 61 109 6.0 11.0 0.00 0.00 0.00 79 1014.5
20191114140005 61 101 6.0 11.0 0.00 0.00 0.00 79 1014.5
20191114135504 62 74 6.0 9.0 0.00 0.00 0.00 79 1014.4